sat.trackr.live / text

‹ back to catalog

YUNYAO-1 44

NORAD 63345 · 2025-059B

PAYLOAD ACTIVE UNKNOWN

§ Identity

Operator
Country
PRC
Launch date
2025-03-21
Launch site
JSC
Launch vehicle
Mass (kg)
RCS (m²)

External: N2YO · Heavens-Above · Gunter

§ Orbital elements

Epoch: 2026-09-21T22:32:05.176320Z

Period
95.27 min
Inclination
97.6128°
Eccentricity
0.0016564
Mean motion
15.11517756 rev/d
Perigee alt
520.1 km
Apogee alt
543.0 km
Semi-major
6,909.7 km
B*
1.2419e-4
RAAN
85.8014°
Arg perigee
180.7761°
Mean anomaly
179.3446°
Rev number
8,291

§ Raw data

YUNYAO-1 441 63345U 25059B   26264.93894880  .00002044  00000+0  12419-3 0  99902 63345  97.6128  85.8014 0016564 180.7761 179.3446 15.11517756 82917

JSON: /api/v1/satellites/63345 · /tle

For live sub-satellite position, see the globe view (requires WebGL).

§ Visibility from observer

Set your observer location to see the next 7 days of passes ≥ 10°. The values pass through the URL so the page stays shareable.

No JS? Fill the form by hand. The geolocation button needs JavaScript.